• In Spain
  • List of Countries
  • For 7 days
  • Water Temperature
  • Satellite Maps
  • Weather Map
  • Weather Widgets
  • user-avatar
    Login

    Hourly Weather Klyuchevaya

    Today, 21 July, Saturday

    Time Temperature Precipitation Wind Pressure Humidity
    00:00 +19°C° 0 mm 3 mps 740 mmHg 95%
    01:00 +19°C° 0 mm 3 mps 740 mmHg 96%
    02:00 +19°C° 0 mm 2 mps 740 mmHg 98%
    03:00 +19°C° 0.1 mm 3 mps 740 mmHg 97%
    04:00 +19°C° 0.1 mm 3 mps 740 mmHg 97%
    05:00 +19°C° 0.1 mm 3 mps 740 mmHg 97%
    06:00 +20°C° 0.2 mm 3 mps 741 mmHg 94%
    07:00 +21°C° 0.2 mm 3 mps 741 mmHg 92%
    08:00 +21°C° 0.2 mm 3 mps 741 mmHg 90%
    09:00 +22°C° 0.2 mm 3 mps 741 mmHg 87%
    10:00 +23°C° 0.2 mm 4 mps 741 mmHg 84%
    11:00 +25°C° 0.2 mm 4 mps 741 mmHg 82%
    12:00 +25°C° 0.7 mm 4 mps 741 mmHg 81%
    13:00 +26°C° 0.7 mm 4 mps 741 mmHg 81%
    14:00 +26°C° 0.7 mm 4 mps 741 mmHg 80%
    15:00 +26°C° 0.7 mm 3 mps 741 mmHg 82%
    16:00 +26°C° 0.7 mm 3 mps 741 mmHg 83%
    17:00 +25°C° 0.7 mm 3 mps 741 mmHg 85%
    18:00 +24°C° 0.6 mm 3 mps 741 mmHg 88%
    19:00 +22°C° 0.6 mm 3 mps 742 mmHg 91%
    20:00 +21°C° 0.6 mm 3 mps 742 mmHg 94%
    21:00 +21°C° 0.7 mm 3 mps 742 mmHg 94%
    22:00 +20°C° 0.7 mm 3 mps 742 mmHg 95%
    23:00 +20°C° 0.7 mm 3 mps 742 mmHg 96%

    Tomorrow, 22 July, Sunday

    Time Temperature Precipitation Wind Pressure Humidity
    00:00 +20°C° 0.1 mm 3 mps 742 mmHg 97%
    01:00 +19°C° 0.1 mm 3 mps 742 mmHg 97%
    02:00 +19°C° 0.1 mm 3 mps 742 mmHg 98%
    03:00 +19°C° 0 mm 3 mps 743 mmHg 97%
    04:00 +19°C° 0 mm 3 mps 743 mmHg 97%
    05:00 +19°C° 0 mm 3 mps 743 mmHg 97%
    06:00 +19°C° 0 mm 3 mps 743 mmHg 96%
    07:00 +19°C° 0 mm 3 mps 743 mmHg 95%
    08:00 +19°C° 0 mm 3 mps 743 mmHg 94%
    09:00 +19°C° 0 mm 3 mps 743 mmHg 92%
    10:00 +20°C° 0 mm 3 mps 744 mmHg 90%
    11:00 +20°C° 0 mm 3 mps 744 mmHg 89%
    12:00 +20°C° 0.1 mm 3 mps 744 mmHg 88%
    13:00 +21°C° 0.1 mm 3 mps 744 mmHg 87%
    14:00 +21°C° 0.1 mm 3 mps 744 mmHg 87%
    15:00 +21°C° 0 mm 3 mps 744 mmHg 85%
    16:00 +21°C° 0 mm 3 mps 744 mmHg 84%
    17:00 +23°C° 0 mm 2 mps 744 mmHg 82%
    18:00 +21°C° 0 mm 2 mps 744 mmHg 86%
    19:00 +20°C° 0 mm 2 mps 744 mmHg 90%
    20:00 +19°C° 0 mm 2 mps 744 mmHg 94%
    21:00 +19°C° 0 mm 2 mps 744 mmHg 95%
    22:00 +18°C° 0 mm 2 mps 744 mmHg 95%
    23:00 +18°C° 0 mm 2 mps 744 mmHg 96%

    Day after tomorrow, 23 July, Monday

    Time Temperature Precipitation Wind Pressure Humidity
    00:00 +17°C° 0 mm 2 mps 744 mmHg 96%
    01:00 +17°C° 0 mm 2 mps 744 mmHg 97%
    02:00 +16°C° 0 mm 2 mps 745 mmHg 98%
    03:00 +16°C° 0 mm 2 mps 745 mmHg 97%
    04:00 +16°C° 0 mm 3 mps 745 mmHg 96%
    05:00 +17°C° 0 mm 3 mps 745 mmHg 96%
    06:00 +18°C° 0 mm 3 mps 745 mmHg 90%
    07:00 +19°C° 0 mm 3 mps 745 mmHg 84%
    08:00 +20°C° 0 mm 3 mps 745 mmHg 78%
    09:00 +21°C° 0 mm 4 mps 745 mmHg 73%
    10:00 +22°C° 0 mm 4 mps 745 mmHg 68%
    11:00 +23°C° 0 mm 4 mps 745 mmHg 63%
    12:00 +23°C° 0.1 mm 4 mps 745 mmHg 66%
    13:00 +23°C° 0.1 mm 4 mps 745 mmHg 68%
    14:00 +22°C° 0.1 mm 4 mps 745 mmHg 70%
    15:00 +22°C° 0.1 mm 4 mps 745 mmHg 73%
    16:00 +22°C° 0.1 mm 4 mps 745 mmHg 75%
    17:00 +21°C° 0.1 mm 3 mps 745 mmHg 77%
    18:00 +20°C° 0 mm 3 mps 745 mmHg 80%
    19:00 +19°C° 0 mm 3 mps 745 mmHg 82%
    20:00 +18°C° 0 mm 3 mps 745 mmHg 85%
    21:00 +18°C° 0 mm 3 mps 745 mmHg 86%
    22:00 +17°C° 0 mm 3 mps 746 mmHg 87%
    23:00 +16°C° 0 mm 2 mps 746 mmHg 88%

    24 July, Tuesday

    Time Temperature Precipitation Wind Pressure Humidity
    00:00 +16°C° 0 mm 3 mps 745 mmHg 89%
    01:00 +14°C° 0 mm 3 mps 745 mmHg 90%
    02:00 +14°C° 0 mm 3 mps 745 mmHg 90%
    03:00 +14°C° 0.1 mm 3 mps 745 mmHg 91%
    04:00 +14°C° 0.1 mm 3 mps 745 mmHg 92%
    05:00 +14°C° 0.1 mm 3 mps 745 mmHg 93%
    06:00 +14°C° 1.1 mm 3 mps 746 mmHg 94%
    07:00 +16°C° 1.1 mm 3 mps 746 mmHg 95%
    08:00 +16°C° 1.1 mm 3 mps 746 mmHg 97%
    09:00 +16°C° 0.9 mm 3 mps 746 mmHg 95%
    10:00 +17°C° 0.9 mm 3 mps 746 mmHg 94%
    11:00 +18°C° 0.9 mm 3 mps 746 mmHg 93%
    12:00 +19°C° 0.2 mm 3 mps 746 mmHg 90%
    13:00 +21°C° 0.2 mm 3 mps 746 mmHg 88%
    14:00 +22°C° 0.2 mm 3 mps 746 mmHg 85%
    15:00 +22°C° 0.8 mm 3 mps 746 mmHg 87%
    16:00 +23°C° 0.8 mm 2 mps 746 mmHg 89%
    17:00 +23°C° 0.8 mm 2 mps 746 mmHg 90%
    18:00 +21°C° 1 mm 2 mps 746 mmHg 91%
    19:00 +21°C° 1 mm 2 mps 746 mmHg 93%
    20:00 +20°C° 1 mm 3 mps 746 mmHg 94%
    21:00 +20°C° 0.3 mm 3 mps 746 mmHg 94%
    22:00 +19°C° 0.3 mm 3 mps 746 mmHg 95%
    23:00 +19°C° 0.3 mm 3 mps 746 mmHg 96%

    25 July, Wednesday

    Time Temperature Precipitation Wind Pressure Humidity
    00:00 +19°C° 0 mm 3 mps 746 mmHg 96%
    01:00 +19°C° 0 mm 3 mps 747 mmHg 96%
    02:00 +19°C° 0 mm 3 mps 747 mmHg 97%
    03:00 +19°C° 0.1 mm 3 mps 747 mmHg 97%
    04:00 +19°C° 0.1 mm 3 mps 747 mmHg 97%
    05:00 +19°C° 0.1 mm 3 mps 748 mmHg 96%
    06:00 +20°C° 0.1 mm 3 mps 748 mmHg 93%
    07:00 +21°C° 0.1 mm 3 mps 748 mmHg 90%
    08:00 +22°C° 0.1 mm 3 mps 749 mmHg 87%
    09:00 +24°C° 0 mm 3 mps 749 mmHg 79%
    10:00 +25°C° 0 mm 3 mps 749 mmHg 71%
    11:00 +26°C° 0 mm 3 mps 750 mmHg 64%
    12:00 +27°C° 0 mm 3 mps 750 mmHg 62%
    13:00 +27°C° 0 mm 3 mps 749 mmHg 60%
    14:00 +28°C° 0 mm 3 mps 749 mmHg 58%
    15:00 +28°C° 0 mm 3 mps 749 mmHg 61%
    16:00 +27°C° 0 mm 3 mps 749 mmHg 64%
    17:00 +27°C° 0 mm 3 mps 749 mmHg 66%
    18:00 +25°C° 0 mm 3 mps 749 mmHg 71%
    19:00 +24°C° 0 mm 2 mps 749 mmHg 76%
    20:00 +21°C° 0 mm 2 mps 750 mmHg 80%
    21:00 +20°C° 0 mm 2 mps 750 mmHg 82%
    22:00 +20°C° 0 mm 2 mps 750 mmHg 85%
    23:00 +19°C° 0 mm 2 mps 750 mmHg 87%

    26 July, Thursday

    Time Temperature Precipitation Wind Pressure Humidity
    00:00 +18°C° 0 mm 2 mps 750 mmHg 88%
    01:00 +18°C° 0 mm 2 mps 751 mmHg 90%
    02:00 +17°C° 0 mm 2 mps 751 mmHg 92%
    03:00 +17°C° 0 mm 2 mps 751 mmHg 91%
    04:00 +18°C° 0 mm 2 mps 751 mmHg 90%
    05:00 +18°C° 0 mm 2 mps 752 mmHg 89%
    06:00 +20°C° 0 mm 2 mps 752 mmHg 83%
    07:00 +22°C° 0 mm 3 mps 752 mmHg 78%
    08:00 +25°C° 0 mm 3 mps 752 mmHg 73%
    09:00 +26°C° 0 mm 3 mps 752 mmHg 66%
    10:00 +27°C° 0 mm 4 mps 752 mmHg 60%
    11:00 +29°C° 0 mm 4 mps 752 mmHg 53%
    12:00 +29°C° 0 mm 4 mps 752 mmHg 52%
    13:00 +30°C° 0 mm 4 mps 752 mmHg 51%
    14:00 +30°C° 0 mm 4 mps 752 mmHg 49%
    15:00 +29°C° 0 mm 3 mps 752 mmHg 54%
    16:00 +29°C° 0 mm 3 mps 752 mmHg 58%
    17:00 +28°C° 0 mm 2 mps 752 mmHg 62%
    18:00 +27°C° 0 mm 2 mps 752 mmHg 68%
    19:00 +25°C° 0 mm 2 mps 752 mmHg 74%
    20:00 +23°C° 0 mm 2 mps 752 mmHg 80%
    21:00 +21°C° 0 mm 2 mps 752 mmHg 82%
    22:00 +20°C° 0 mm 2 mps 752 mmHg 84%
    23:00 +20°C° 0 mm 2 mps 753 mmHg 87%
    Show more